This demonstration page uses our WeatherBlox Daily Observations layout. Learn more.

Left ArrowRight Arrow

Hourly Observations for April 11, 2021

Temp ( °F °C ) Dew Point ( °F °C ) Humidity (%) Winds ( mph kmh ) Pressure ( in mb ) Visibility ( mi km ) Precip ( " mm )
12:53 am 00:53 Clear 60 15.6 58 14.4 93 93 SW 5 7 29.68 1005 10 16 0.00 0.00
1:53 am 01:53 Partly Cloudy 60 15.6 57 13.9 90 90 SSW 5 7 29.68 1005 10 16 0.00 0.00
2:53 am 02:53 Mostly Cloudy 60 15.6 58 14.4 93 93 SSW 5 7 29.67 1005 10 16 0.00 0.00
3:53 am 03:53 Clear 60 15.6 57 13.9 90 90 SW 5 7 29.67 1005 10 16 0.00 0.00
4:37 am 04:37 Mostly Clear 59 15 57 13.9 93 93 WSW 5 7 29.68 1005 10 16 0.00 0.00
4:53 am 04:53 Mostly Cloudy 59 15 57 13.9 93 93 SSW 6 9 29.67 1005 10 16 0.00 0.00
5:34 am 05:34 Cloudy 58 14.4 57 13.9 97 97 SW 5 7 29.69 1005 8 13 0.00 0.00
5:53 am 05:53 Cloudy with Mist and Fog 58 14.4 57 13.9 97 97 SW 5 7 29.67 1005 6 10 0.00 0.00
6:28 am 06:28 Cloudy with Mist and Fog 58 14.4 57 13.9 97 97 SW 7 11 29.69 1005 3 5 0.00 0.00
6:36 am 06:36 Cloudy with Mist and Fog 58 14.4 57 13.9 97 97 SW 6 9 29.69 1005 3 4 0.00 0.00
6:53 am 06:53 Cloudy with Mist and Fog 58 14.4 57 13.9 97 97 SW 5 7 29.68 1005 4 6 0.00 0.00
7:36 am 07:36 Cloudy with Mist and Fog 57 13.9 57 13.9 100 100 Calm 29.70 1006 2 3 0.00 0.00
7:44 am 07:44 Cloudy with Fog 57 13.9 57 13.9 100 100 SW 3 6 29.70 1006 1 1 0.00 0.00
7:53 am 07:53 Cloudy with Mist and Fog 57 13.9 57 13.9 100 100 Calm 29.68 1005 1 2 0.00 0.00
8:00 am 08:00 Cloudy with Mist and Fog 57 13.9 57 13.9 100 100 Calm 29.70 1006 3 5 0.00 0.00
8:12 am 08:12 Cloudy with Mist and Fog 57 13.9 57 13.9 100 100 Calm 29.70 1006 2 3 0.00 0.00
8:19 am 08:19 Mostly Cloudy with Mist and Fog 57 13.9 57 13.9 100 100 Calm 29.71 1006 3 5 0.00 0.00
8:31 am 08:31 Partly Cloudy 58 14.4 54 12.2 87 87 W 6 9 29.72 1006 10 16 0.00 0.00
8:53 am 08:53 Sunny 60 15.6 53 11.7 78 78 WNW 9 15 29.70 1006 10 16 0.00 0.00
9:53 am 09:53 Sunny 62 16.7 51 10.6 67 67 SSW 3 6 29.71 1006 10 16 0.00 0.00
10:53 am 10:53 Sunny 66 18.9 47 8.3 50 50 VRB 6 9 29.72 1007 10 16 0.00 0.00
11:53 am 11:53 Sunny 67 19.4 43 6.1 42 42 W 7 11 29.73 1007 10 16 0.00 0.00
12:53 pm 12:53 Sunny 69 20.6 42 5.6 38 38 VRB 3 6 29.70 1006 10 16 0.00 0.00
1:53 pm 13:53 Sunny 71 21.7 40 4.4 32 32 NW 8 13 29.67 1005 10 16 0.00 0.00
2:53 pm 14:53 Sunny 72 22.2 42 5.6 34 34 NW 7 11 29.67 1005 10 16 0.00 0.00
3:53 pm 15:53 Sunny 73 22.8 41 5 32 32 NNW 10 17 29.65 1004 10 16 0.00 0.00
4:53 pm 16:53 Sunny 74 23.3 38 3.3 27 27 WSW 8 13 29.63 1003 10 16 0.00 0.00
5:53 pm 17:53 Sunny 74 23.3 36 2.2 25 25 NW 10 17 29.63 1003 10 16 0.00 0.00
6:53 pm 18:53 Sunny 73 22.8 35 1.7 25 25 WSW 8 13 29.63 1003 10 16 0.00 0.00
7:53 pm 19:53 Sunny 70 21.1 35 1.7 28 28 WNW 8 13 29.64 1004 10 16 0.00 0.00
8:53 pm 20:53 Clear 66 18.9 37 2.8 34 34 W 3 6 29.66 1004 10 16 0.00 0.00
9:53 pm 21:53 Clear 64 17.8 38 3.3 38 38 Calm 29.69 1005 10 16 0.00 0.00
10:53 pm 22:53 Clear 63 17.2 41 5 45 45 Calm 29.70 1006 10 16 0.00 0.00
11:53 pm 23:53 Clear 61 16.1 41 5 48 48 SSW 3 6 29.71 1006 10 16 0.00 0.00

Powered by AerisWeather